AirNav   Pilot Hours Calculator
 
 419 users online  

08MI Sparrow Hospital Heliport
Lansing, Michigan, USA

GOING TO LANSING?


FAA INFORMATION EFFECTIVE 31 DECEMBER 2020

Location

FAA Identifier: 08MI
Lat/Long: 42-44-04.0000N 084-32-09.0000W
42-44.066667N 084-32.150000W
42.7344444,-84.5358333
(estimated)
Elevation: 1019 ft. / 311 m (estimated)
Variation: 04W (1980)
Time zone: UTC -5 (UTC -4 during Daylight Saving Time)
Zip code: 48912

Heliport Operations

Heliport use: Private use, MEDICAL USE.
Activation date: 10/1986
Control tower: no
ARTCC: CLEVELAND CENTER
FSS: LANSING FLIGHT SERVICE STATION
Attendance: CONTINUOUS
Wind indicator: lighted
Segmented circle: no
Lights: FOR LIRL RY H1 CALL 517-364-2000
Beacon: white-green-yellow (heliport)
FOR ROTG BCN CALL 517-364-2000

Heliport Communications

WX ASOS at LAN (3 nm NW): 119.75 (517-908-8494)
WX AWOS-3 at TEW (11 nm SE): 119.425 (517-676-5607)
WX AWOS-3 at FPK (16 nm SW): 118.075 (517-543-2288)

Nearby radio navigation aids

VOR radial/distance  VOR name  Freq  Var
FNTr254/37.4FLINT VORTAC116.9006W

Heliport Services

Runway Information

Helipad H1

Dimensions: 60 x 60 ft. / 18 x 18 m
Surface: ROOF/TOP
Runway edge lights: low intensity
Traffic pattern: leftleft

Heliport Ownership and Management from official FAA records

Ownership: Privately-owned
Owner: SPARROW HEALTH SYSTEMS
1215 E MICHIGAN AVE
LANSING, MI 48912-1811
Phone 517-483-2504
Manager: SUPACHAI DOROSCH
1215 E MICHIGAN AVE
LANSING, MI 48912-1811
Phone 517-364-2000

Additional Remarks

APCH/DEP 090/270.
FOR CD CTC GREAT LAKES APCH AT 269-459-3345, WHEN APCH CLSD CTC CLEVELAND ARTCC AT 440-774-0224/0490.

Instrument Procedures

There are no published instrument procedures at 08MI.

Some nearby airports with instrument procedures:

KLAN - Capital Region International Airport (3 nm NW)
4D0 - Abrams Municipal Airport (9 nm W)
KTEW - Mason Jewett Field Airport (11 nm SE)
KFPK - Fitch H Beach Airport (16 nm SW)
KRNP - Owosso Community Airport (23 nm NE)
 
Loc | Ops | Rwys | IFR | FBO | Links
Com | Nav | Svcs | Stats | Notes
Area around 08MI (Sparrow Hospital Heliport)
 
Road maps at: MapQuest Bing Google
 
Aerial photo
No photo
 
Sectional chart

 
Airport distance calculator
Flying to Sparrow Hospital Heliport? Find the distance to fly.

From to 08MI

Sunrise and sunset
Times for 23-Jan-2021
 Local
(UTC-5)
 Zulu
(UTC)
Morning civil twilight07:3112:31
Sunrise08:0213:02
Sunset17:3822:38
Evening civil twilight18:0923:09

Current date and time
Zulu (UTC)  23-Jan-2021 06:56:52
Local (UTC-5)  23-Jan-2021 01:56:52
 
METAR
KLAN 
4nm NW 
230553Z 28006KT 10SM OVC041 M08/M14 A3022 RMK AO2 SLP249 T10831144 11072 21083 51012
KTEW 
11nm SE 
230635Z AUTO 28005KT 10SM OVC040 M09/M14 A3022 RMK AO2 T10861145
KFPK 
16nm SW 
230635Z AUTO 28004KT 10SM OVC038 M08/M13 A3022 RMK AO2 T10851135
TAF
KLAN 
4nm NW 
230540Z 2306/2406 31006KT P6SM OVC040 FM231700 25008KT P6SM BKN045 FM232200 22004KT P6SM OVC100
NOTAMs
Click for the latest NOTAMs
NOTAMs are issued by the DoD/FAA and will open in a separate window not controlled by AirNav.

 

 
 

Would you like to see your business listed on this page?

 If your business provides an interesting product or service to pilots, flight crews, aircraft, or users of the Sparrow Hospital Heliport, you should consider listing it here.  To start the listing process, click on the button below
 
Add a business
 

Other Pages about Sparrow Hospital Heliport

Update a link
 
Copyright © AirNav, LLC. All rights reserved. Privacy Policy  Contact